TimeEST,TemperatureF,Dew PointF,Humidity,Sea Level PressureIn,VisibilityMPH,Wind Direction,Wind SpeedMPH,Gust SpeedMPH,PrecipitationIn,Events,Conditions,WindDirDegrees,DateUTC
12:15 AM,36.7,34.5,92,29.90,10.0,NW,6.9,-,N/A,,Overcast,320,2013-02-14 05:15:00
12:35 AM,36.5,34.3,92,29.91,10.0,WNW,4.6,-,N/A,,Overcast,300,2013-02-14 05:35:00
12:55 AM,36.1,34.3,93,29.91,10.0,WNW,5.8,-,N/A,,Overcast,290,2013-02-14 05:55:00
1:15 AM,36.1,34.2,93,29.91,10.0,WNW,4.6,-,N/A,,Overcast,290,2013-02-14 06:15:00
1:35 AM,36.0,34.0,93,29.92,10.0,WNW,5.8,-,N/A,,Overcast,290,2013-02-14 06:35:00
1:55 AM,35.8,33.8,92,29.92,10.0,WNW,6.9,-,N/A,,Overcast,290,2013-02-14 06:55:00
2:15 AM,35.8,33.8,92,29.93,10.0,WNW,5.8,-,N/A,,Overcast,290,2013-02-14 07:15:00
2:35 AM,35.6,33.8,93,29.93,10.0,WNW,8.1,-,N/A,,Overcast,290,2013-02-14 07:35:00
2:55 AM,35.6,33.4,92,29.94,10.0,WNW,5.8,-,N/A,,Overcast,290,2013-02-14 07:55:00
3:15 AM,35.6,33.3,91,29.95,10.0,WNW,8.1,-,N/A,,Overcast,290,2013-02-14 08:15:00
3:35 AM,34.9,32.9,92,29.95,10.0,WNW,6.9,-,N/A,,Overcast,290,2013-02-14 08:35:00
3:55 AM,34.7,32.4,91,29.95,10.0,WNW,5.8,-,N/A,,Overcast,290,2013-02-14 08:55:00
4:15 AM,34.7,32.0,90,29.95,10.0,WNW,4.6,-,N/A,,Overcast,300,2013-02-14 09:15:00
4:35 AM,34.7,32.0,90,29.96,10.0,WNW,5.8,-,N/A,,Overcast,290,2013-02-14 09:35:00
4:55 AM,34.2,31.1,89,29.96,10.0,WNW,4.6,-,N/A,,Overcast,300,2013-02-14 09:55:00
5:15 AM,34.0,30.2,86,29.96,10.0,NW,3.5,-,N/A,,Overcast,310,2013-02-14 10:15:00
5:35 AM,33.4,29.3,85,29.96,10.0,NW,4.6,-,N/A,,Overcast,310,2013-02-14 10:35:00
6:15 AM,32.0,29.7,91,29.96,10.0,Calm,Calm,-,N/A,,Scattered Clouds,0,2013-02-14 11:15:00
6:35 AM,31.8,30.2,94,29.96,10.0,NW,3.5,-,N/A,,Clear,310,2013-02-14 11:35:00
6:55 AM,32.0,28.9,88,29.97,10.0,Calm,Calm,-,N/A,,Clear,0,2013-02-14 11:55:00
7:15 AM,32.0,28.6,87,29.97,10.0,Calm,Calm,-,N/A,,Clear,0,2013-02-14 12:15:00
7:35 AM,31.6,28.0,87,29.97,10.0,Calm,Calm,-,N/A,,Clear,0,2013-02-14 12:35:00
7:55 AM,30.7,28.2,90,29.98,10.0,Calm,Calm,-,N/A,,Clear,0,2013-02-14 12:55:00
8:15 AM,30.9,28.8,92,29.99,10.0,Calm,Calm,-,N/A,,Clear,0,2013-02-14 13:15:00
8:35 AM,32.0,29.3,90,30.00,10.0,WSW,4.6,-,N/A,,Clear,250,2013-02-14 13:35:00
8:55 AM,34.0,28.9,82,30.01,10.0,West,6.9,-,N/A,,Clear,270,2013-02-14 13:55:00
9:15 AM,34.7,30.0,83,30.01,10.0,WSW,6.9,-,N/A,,Clear,240,2013-02-14 14:15:00
9:35 AM,35.2,29.7,80,30.01,10.0,West,8.1,-,N/A,,Clear,280,2013-02-14 14:35:00
9:55 AM,36.0,29.3,77,30.01,10.0,WSW,9.2,-,N/A,,Mostly Cloudy,250,2013-02-14 14:55:00
10:15 AM,36.5,29.3,75,30.02,10.0,West,8.1,11.5,N/A,,Mostly Cloudy,260,2013-02-14 15:15:00
10:35 AM,36.3,28.6,74,30.02,10.0,West,9.2,18.4,N/A,,Overcast,270,2013-02-14 15:35:00
10:55 AM,36.7,29.8,76,30.03,10.0,West,9.2,-,N/A,,Mostly Cloudy,280,2013-02-14 15:55:00
11:15 AM,38.7,30.9,74,30.03,10.0,West,5.8,-,N/A,,Overcast,280,2013-02-14 16:15:00
11:35 AM,40.3,31.1,70,30.02,10.0,SW,11.5,-,N/A,,Mostly Cloudy,220,2013-02-14 16:35:00
11:55 AM,40.1,30.4,68,30.02,10.0,WNW,8.1,-,N/A,,Mostly Cloudy,290,2013-02-14 16:55:00
12:15 PM,41.0,30.4,66,30.01,10.0,WNW,9.2,-,N/A,,Scattered Clouds,290,2013-02-14 17:15:00
12:35 PM,41.7,29.8,63,30.00,10.0,West,8.1,-,N/A,,Clear,280,2013-02-14 17:35:00
12:55 PM,43.0,31.5,64,29.99,10.0,West,3.5,-,N/A,,Clear,260,2013-02-14 17:55:00
1:15 PM,44.6,31.5,60,29.99,10.0,West,9.2,-,N/A,,Clear,280,2013-02-14 18:15:00
1:35 PM,44.6,30.2,57,29.99,10.0,West,6.9,10.4,N/A,,Clear,270,2013-02-14 18:35:00
1:55 PM,45.1,31.1,58,29.98,10.0,West,10.4,18.4,N/A,,Clear,280,2013-02-14 18:55:00
2:15 PM,46.2,31.3,56,29.98,10.0,West,5.8,9.2,N/A,,Clear,260,2013-02-14 19:15:00
2:35 PM,47.3,31.5,54,29.97,10.0,West,8.1,-,N/A,,Clear,270,2013-02-14 19:35:00
2:55 PM,46.8,31.6,56,29.95,10.0,West,9.2,-,N/A,,Clear,280,2013-02-14 19:55:00
3:15 PM,47.5,32.0,55,29.95,10.0,West,11.5,18.4,N/A,,Clear,280,2013-02-14 20:15:00
3:35 PM,48.0,31.8,54,29.96,10.0,West,8.1,-,N/A,,Clear,270,2013-02-14 20:35:00
4:15 PM,47.5,31.5,54,29.97,10.0,West,10.4,-,N/A,,Clear,260,2013-02-14 21:15:00
4:35 PM,47.7,31.5,53,29.97,10.0,WSW,10.4,17.3,N/A,,Clear,250,2013-02-14 21:35:00
4:55 PM,47.7,31.6,54,29.97,10.0,West,8.1,-,N/A,,Clear,260,2013-02-14 21:55:00
5:15 PM,47.5,31.8,55,29.98,10.0,West,8.1,-,N/A,,Clear,280,2013-02-14 22:15:00
5:35 PM,46.8,31.6,56,29.99,10.0,West,6.9,-,N/A,,Clear,280,2013-02-14 22:35:00
5:55 PM,45.9,31.8,58,29.99,10.0,West,6.9,-,N/A,,Clear,280,2013-02-14 22:55:00
6:15 PM,44.2,31.8,62,30.00,10.0,West,5.8,-,N/A,,Clear,270,2013-02-14 23:15:00
6:35 PM,43.7,31.8,63,30.00,10.0,West,4.6,-,N/A,,Clear,260,2013-02-14 23:35:00
6:55 PM,42.4,31.8,66,30.00,10.0,West,4.6,-,N/A,,Clear,260,2013-02-14 23:55:00
7:15 PM,42.3,31.8,67,30.00,10.0,WSW,3.5,-,N/A,,Clear,250,2013-02-15 00:15:00
7:35 PM,40.1,31.6,72,30.00,10.0,Calm,Calm,-,N/A,,Clear,0,2013-02-15 00:35:00
7:55 PM,39.0,32.0,76,30.00,10.0,Calm,Calm,-,N/A,,Clear,0,2013-02-15 00:55:00
8:15 PM,37.4,31.5,79,30.00,10.0,Calm,Calm,-,N/A,,Clear,0,2013-02-15 01:15:00
8:35 PM,37.4,31.6,80,30.00,10.0,Calm,Calm,-,N/A,,Clear,0,2013-02-15 01:35:00
8:55 PM,35.6,31.5,85,30.01,10.0,Calm,Calm,-,N/A,,Clear,0,2013-02-15 01:55:00
9:15 PM,35.1,31.8,88,30.00,10.0,Calm,Calm,-,N/A,,Clear,0,2013-02-15 02:15:00
9:35 PM,34.3,32.0,91,30.00,7.0,Calm,Calm,-,N/A,,Clear,0,2013-02-15 02:35:00
9:55 PM,34.2,31.5,90,30.00,10.0,Calm,Calm,-,N/A,,Clear,0,2013-02-15 02:55:00
10:15 PM,34.2,31.8,91,30.00,10.0,Calm,Calm,-,N/A,,Clear,0,2013-02-15 03:15:00
10:35 PM,33.8,31.5,91,30.00,10.0,Calm,Calm,-,N/A,,Clear,0,2013-02-15 03:35:00
10:55 PM,33.1,31.1,92,30.01,10.0,Calm,Calm,-,N/A,,Clear,0,2013-02-15 03:55:00
11:15 PM,32.5,30.9,94,30.02,10.0,Calm,Calm,-,N/A,,Clear,0,2013-02-15 04:15:00
11:35 PM,32.9,30.9,92,30.01,10.0,Calm,Calm,-,N/A,,Clear,0,2013-02-15 04:35:00
11:55 PM,32.0,30.4,94,30.02,10.0,Calm,Calm,-,N/A,,Clear,0,2013-02-15 04:55:00